Location: Bergheim
(50.9593°N, 6.6400°E)
Time: 23:37:26
(UTC+02:00)

ISS - Visible Passes

Search period start: 27 October 2021 00:00
Search period end: 05 November 2021 23:00
Orbit: 417 x 423 km, 51.6° (Epoch: 27 October)

Date Brightness Start Highest point End Pass type
(mag) Time Alt. Az. Time Alt. Az. Time Alt. Az.
27 Oct -2.9 06:20:50 36° SSW 06:21:37 44° SSE 06:24:52 10° E visible
28 Oct -1.6 05:35:41 24° ESE 05:35:41 24° ESE 05:37:32 10° E visible
28 Oct -3.8 07:08:40 18° WSW 07:11:05 90° NNW 07:14:29 10° E visible
29 Oct -3.8 06:23:27 65° SW 06:23:50 77° SSE 06:27:13 10° ENE visible
30 Oct -1.7 05:38:10 28° E 05:38:10 28° E 05:39:56 10° E visible
30 Oct -3.8 07:11:09 19° W 07:13:25 77° N 07:16:48 10° E visible
31 Oct -3.9 05:25:50 72° WNW 05:26:07 80° N 05:29:30 10° E visible
01 Nov -1.6 04:40:30 27° E 04:40:30 27° E 04:42:12 10° E visible
01 Nov -3.8 06:13:29 20° W 06:15:43 85° N 06:19:06 10° E visible
02 Nov -3.9 05:28:09 71° NW 05:28:24 78° N 05:31:48 10° E visible
03 Nov -1.6 04:42:48 27° E 04:42:48 27° E 04:44:28 10° E visible
03 Nov -3.7 06:15:46 20° W 06:17:56 67° SSW 06:21:16 10° ESE visible
04 Nov -3.9 05:30:27 76° WSW 05:30:39 82° SSW 05:34:01 10° ESE visible
05 Nov -1.5 04:45:08 25° E 04:45:08 25° E 04:46:44 10° E visible
05 Nov -2.9 06:18:07 20° W 06:20:01 37° SSW 06:23:08 10° SE visible
